This demonstration page uses our WeatherBlox Daily Observations layout. Learn more.

Left ArrowRight Arrow

Hourly Observations for December 24, 2021

Temp ( °F °C ) Dew Point ( °F °C ) Humidity (%) Winds ( mph kmh ) Pressure ( in mb ) Visibility ( mi km ) Precip ( " mm )
12:51 am 00:51 Partly Cloudy 10 -12 3 -16 72 72 NW 14 22 29.60 1002 10 16 0.00 0.00
12:53 am 00:53 Mostly Clear 10 -12.2 3 -16.1 73 73 NW 14 22 29.45 997 10 16 0.00 0.00
1:53 am 01:53 Partly Cloudy 10 -12.2 3 -16.1 73 73 WNW 6 9 29.49 999 10 16 0.00 0.00
2:00 am 02:00 Mostly Cloudy 10 -12.2 4 -15.6 76 76 W 5 7 29.66 1004 10 16 0.00 0.00
2:49 am 02:49 Mostly Cloudy 9 -13 3 -16 78 78 NW 8 13 29.68 1005 9 14 0.00 0.00
2:53 am 02:53 Mostly Cloudy 9 -12.8 4 -15.6 80 80 NW 8 13 29.53 1000 9 14 0.00 0.00
3:08 am 03:08 Partly Cloudy 9 -12.8 3 -16.1 77 77 WNW 7 11 29.70 1006 10 16 0.00 0.00
3:17 am 03:17 Mostly Clear 9 -12.8 3 -16.1 77 77 W 6 9 29.70 1006 10 16 0.00 0.00
3:53 am 03:53 Clear 9 -12.8 2 -16.7 73 73 W 9 15 29.54 1001 10 16 0.00 0.00
4:53 am 04:53 Clear 8 -13.3 1 -17.2 73 73 WNW 5 7 29.57 1001 10 16 0.00 0.00
5:53 am 05:53 Clear 8 -13.3 1 -17.2 73 73 WSW 3 6 29.59 1002 10 16 0.00 0.00
6:53 am 06:53 Mostly Cloudy 7 -13.9 2 -16.7 80 80 Calm 29.61 1003 10 16 0.00 0.00
7:53 am 07:53 Cloudy 8 -13.3 1 -17.2 73 73 WNW 6 9 29.62 1003 10 16 0.00 0.00
8:53 am 08:53 Partly Cloudy 7 -13.9 1 -17.2 76 76 Calm 29.66 1004 10 16 0.00 0.00
9:53 am 09:53 Sunny 9 -12.8 1 -17.2 70 70 W 3 6 29.69 1006 10 16 0.00 0.00
10:53 am 10:53 Sunny 9 -12.8 0 -17.8 66 66 W 7 11 29.70 1006 10 16 0.00 0.00
11:53 am 11:53 Mostly Cloudy 11 -11.7 1 -17.2 64 64 NNW 5 7 29.72 1006 10 16 0.00 0.00
12:53 pm 12:53 Cloudy 11 -11.7 1 -17.2 64 64 NW 5 7 29.71 1006 10 16 0.00 0.00
1:53 pm 13:53 Mostly Cloudy 13 -10.6 2 -16.7 61 61 Calm 29.72 1006 10 16 0.00 0.00
2:01 pm 14:01 Mostly Cloudy 13 -10.6 2 -16.7 61 61 Calm 29.80 1009 10 16 0.00 0.00
2:31 pm 14:31 Mostly Sunny 11 -11.7 2 -16.7 67 67 ENE 6 9 29.81 1009 10 16 0.00 0.00
2:53 pm 14:53 Sunny 10 -12.2 1 -17.2 67 67 E 6 9 29.73 1007 10 16 0.00 0.00
3:53 pm 15:53 Mostly Sunny 11 -11.7 1 -17.2 64 64 NE 8 13 29.74 1007 10 16 0.00 0.00
4:09 pm 16:09 Mostly Cloudy 10 -12.2 1 -17.2 67 67 NE 7 11 29.84 1011 10 16 0.00 0.00
4:53 pm 16:53 Cloudy 9 -12.8 0 -17.8 66 66 NE 7 11 29.76 1008 10 16 0.00 0.00
5:53 pm 17:53 Cloudy 9 -12.8 0 -17.8 66 66 NE 7 11 29.77 1008 10 16 0.00 0.00
6:53 pm 18:53 Cloudy 8 -13.3 0 -17.8 69 69 ENE 8 13 29.78 1008 10 16 0.00 0.00
7:53 pm 19:53 Cloudy 8 -13.3 0 -17.8 69 69 NE 10 17 29.76 1008 10 16 0.00 0.00
8:53 pm 20:53 Cloudy 8 -13.3 0 -17.8 69 69 NE 12 19 29.77 1008 10 16 0.00 0.00
9:53 pm 21:53 Cloudy 8 -13.3 1 -17.2 73 73 NE 10 17 29.77 1008 10 16 0.00 0.00
10:53 pm 22:53 Cloudy 7 -13.9 0 -17.8 73 73 ENE 13 20 29.78 1009 10 16 0.00 0.00
11:53 pm 23:53 Cloudy 7 -13.9 0 -17.8 73 73 E 13 20 29.79 1009 10 16 0.00 0.00

Powered by AerisWeather